Вернуться в каталог

CZ-12B R/B

АктивенPO
NORAD 69327·ROCKET BODY·🇨🇳 China

Запущен Jun 1, 2026 с Jiuquan Satellite Launch Center

Loading…

Ближайшие Пролёты (ближайшие 24 часа)

TLE

СвежийSource: Space-Track

Эпоха: Sep 14, 2026, 12:36 UTC

1 69327U 26121C   26257.52523912  .00000026  00000-0  50966-5 0  9999
2 69327  89.0264 290.8545 0196650  82.5994 279.7486 14.04120518 14762

Отслеживайте CZ-12B R/B в реальном времени с AllMySat

Download on the App Store